Back to catalog

FENGYUN 1C DEB

AliveSSO
NORAD 30036·DEBRIS·🇨🇳 China

Launched May 10, 1999 from Taiyuan Satellite Launch Center

Loading…

Next Passes (next 24 hours)

TLE

FreshSource: Space-Track

Epoch: Sep 14, 2026, 00:46 UTC

1 30036U 99025NM  26257.03195454  .00001402  00000-0  31824-3 0  9998
2 30036  98.2295 281.8399 0189201  87.9343 303.5402 14.47110483 31547

Track FENGYUN 1C DEB in real time with AllMySat

Download on the App Store